Regional Weather Roundup
Issued by NWS Little Rock, AR

Home | Current Version | Previous Version | Text Only | Print | Product List | Glossary On
Versions: 1 2 3 4 5 6 7 8 9 10 11 12 13 14 15 16 17 18 19 20 21 22 23 24 25 26 27 28 29 30 31 32 33 34 35 36 37 38 39 40 41 42 43 44 45 46 47 48 49 50
000
ASUS44 KLZK 110405
RWRLZK

WEATHER ROUNDUP FOR ARKANSAS
NATIONAL WEATHER SERVICE LITTLE ROCK AR
1000 PM CST WED FEB 10 2016

NOTE: "FAIR" INDICATES FEW OR NO CLOUDS BELOW 12,000 FEET WITH NO
SIGNIFICANT WEATHER AND/OR OBSTRUCTIONS TO VISIBILITY.

ARZ001-003-010-029-110500-
NORTHWEST ARKANSAS

CITY           SKY/WX    TMP DP  RH WIND       PRES   REMARKS
FAYETTEVILLE   CLEAR     45  30  55 S9        29.95F
FORT SMITH     CLEAR     42  24  49 NE5       29.98F
HARRISON       CLEAR     38  22  52 VRB6      29.97F
BENTONVILLE    CLEAR    N/A N/A N/A SE3       29.95S
ROGERS         CLEAR     44  27  51 S6        29.95S
SILOAM SPGS    CLEAR     46  25  42 SW6       29.96R
HIGHFILL       CLEAR     47  30  51 SW7       29.94S
$$

ARZ004-005-016-110500-
NORTH CENTRAL ARKANSAS

CITY           SKY/WX    TMP DP  RH WIND       PRES   REMARKS
BATESVILLE     CLEAR     34  19  55 E8        30.08S WCI  27
FLIPPIN        CLEAR     36  18  48 E3        30.00S
MTN HOME       CLEAR     34  20  56 E8        30.01S WCI  27
$$

ARZ040-041-110500-
WEST CENTRAL ARKANSAS

CITY           SKY/WX    TMP DP  RH WIND       PRES   REMARKS
MENA           CLEAR     57  34  41 W9        30.02F
MOUNT IDA      CLEAR     42  29  59 CALM      29.99F
$$

ARZ009-017-025-026-028-110500-
NORTHEAST ARKANSAS

CITY           SKY/WX    TMP DP  RH WIND       PRES   REMARKS
JONESBORO      CLEAR     29  18  63 E9        30.12F WCI  20
NEWPORT        CLEAR     32  23  69 E10       30.10F WCI  24
WALNUT RIDGE   CLEAR     30  12  47 SE8       30.12S WCI  23
BLYTHEVILLE    CLEAR     30  16  56 E9        30.14F WCI  22
$$

ARZ022-023-033-042-044-110500-
CENTRAL ARKANSAS

CITY           SKY/WX    TMP DP  RH WIND       PRES   REMARKS
LITTLE ROCK    CLEAR     40  25  55 SE5       30.04F
N LITTLE ROCK  CLEAR     46  29  50 SW6       30.04F
JACKSONVILLE   CLEAR     35  25  69 SE2       30.02F
SEARCY         CLEAR     34  24  67 NE5       30.07S WCI  30
HOT SPRINGS    CLEAR     46  29  51 NW3       30.03F
RUSSELLVILLE   CLEAR     33  26  75 CALM      29.99F
CLINTON        FAIR      28  23  80 CALM      30.05R
$$

ARZ036-110500-
EAST ARKANSAS

CITY           SKY/WX    TMP DP  RH WIND       PRES   REMARKS
WEST MEMPHIS   CLEAR     34  22  61 E7        30.11S WCI  28
$$

ARZ050-053-066-070-073-110500-
SOUTHWEST ARKANSAS

CITY           SKY/WX    TMP DP  RH WIND       PRES   REMARKS
ARKADELPHIA    FAIR      35  31  86 CALM      30.05F
CAMDEN         CLEAR     39  28  65 CALM      30.06F
TEXARKANA      PTCLDY    54  33  45 S10       30.05S
EL DORADO      CLEAR     47  31  53 S5        30.07F
DE QUEEN       CLEAR     39  33  79 E3        30.03F
$$

ARZ056-057-069-110500-
SOUTHEAST ARKANSAS

CITY           SKY/WX    TMP DP  RH WIND       PRES   REMARKS
PINE BLUFF     CLEAR     36  27  69 SE5       30.05F
STUTTGART      CLEAR     39  28  65 SE7       30.06F
MONTICELLO     CLEAR     46  29  51 SW7       30.07S

$$





USA.gov is the U.S. government's official web portal to all federal, state and local government web resources and services.